Tracking 31027 objects as of 19-Jul-2025
HD Live streaming from Space Station
objects crossing your sky now

STARLINK-3750

Track STARLINK-3750 now!
10-day predictions
STARLINK-3750 is classified as:


NORAD ID: 52311
Int'l Code: 2022-041BC
Perigee: 546.0 km
Apogee: 547.8 km
Inclination: 53.2 °
Period: 95.4 minutes
Semi major axis: 6917 km
RCS: Unknown
Launch date: April 21, 2022
Source: United States (US)
Launch site: AIR FORCE EASTERN TEST RANGE (AFETR)
Your satellite tracking list
Your tracking list is empty




NASA's NSSDC Master Catalog

Two Line Element Set (TLE):
1 52311U 22041BC  25199.86791831  .00003094  00000-0  21241-3 0  9999
2 52311  53.2172  58.7892 0001323  88.3560 271.7584 15.08839835180566
Source of the keplerian elements: AFSPC